Tracking 25710 objects as of 5-Jul-2022
HD Live streaming from Space Station
objects crossing your sky now

FENGYUN 1C DEB

Track FENGYUN 1C DEB now!
10-day predictions


NORAD ID: 37079
Int'l Code: 1999-025EFP
Perigee: 801.7 km
Apogee: 832.4 km
Inclination: 98.9 °
Period: 101.1 minutes
Semi major axis: 7188 km
RCS: 0.0038 m2 (small)
Launch date: May 10, 1999
Source: People's Republic of China (PRC)
Launch site: Taiyaun Space Center, China (TSC)

Note: This is SATELLITE DEBRIS
aabbcc
Your satellite tracking list
Your tracking list is empty




NASA's NSSDC Master Catalog

Two Line Element Set (TLE):
1 37079U 99025EFP 22184.47170362  .00001799  00000-0  79279-3 0  9991
2 37079  98.8610 266.8981 0021409 238.1410 121.7685 14.24575973465401
Source of the keplerian elements: AFSPC